Location: Most
(50.5133°N, 13.6207°E)
Time: 05:10:14
(UTC+01:00)

ZACube-1 - Pass Details

Date: 09 December 2021
Orbit: 583 x 664 km, 97.6° (Epoch: 19 January)

Event Time Altitude Azimuth Distance (km) Brightness Sun altitude
Rises 05:26:21 0° 6° (N) 3,010 ? -22.3°
Reaches altitude 10° 05:28:43 10° 358° (N) 2,098 ? -21.9°
Enters shadow 05:29:14 13° 355° (N) 1,913 ? -21.9°
